Weather in Druzhba

Russia / Kaliningrad Oblast     54°29′24″N   21°11′54″E
temp.,
°C
wind,
m/s
gust,
m/s
humid.,
%
clouds,
%
prec.,
mm/h
press.,
hPa
HPBL,
m
24 july, sat
sat2423:00+16wnw23965 0.0 101656
02:00+15wnw23978 0.0 101640
05:00+13n23945 0.0 101646
08:00+17nne23720 0.0 1017326
11:00+22n22550 0.0 1017953
14:00+25nnw21506 0.0 10161495
17:00+24nnw325280 0.0 10161304
20:00+18n357231 0.0 101698
25 july, sun
sun2523:00+15ene22804 0.0 101721
02:00+14ese22842 0.0 101713
05:00+15ese22944 0.0 101730
08:00+21ese24725 0.0 1017338
11:00+26ese345148 0.0 10171259
14:00+28se444268 0.0 10162498
17:00+27ese445070 0.0 10161241
20:00+22e377338 0.0 1016139
26 july, mon
mon2623:00+20ese4107580 0.0 1016202
02:00+21se41166100 0.0 1016327
05:00+20se4106481 0.0 1016313
08:00+22se5116194 0.0 1016383
11:00+27ese694896 0.0 1015960
14:00+26se595796 0.0 1015793
17:00+29se694998 0.0 10141797
20:00+25e5126329 0.0 1013496
27 july, tue
tue2723:00+22se41173100 0.2 1013381
02:00+21se4107599 0.3 1013288
05:00+19se3882100 0.0 1013277
08:00+21sse358496 0.3 1013407
11:00+25ssw4572100 0.5 10131031
14:00+25wsw457495 3.4 1013989
17:00+27w335255 0.6 10131176
20:00+23nw11725 0.6 101313
28 july, wed
wed2823:00+19ne1287100 0.5 101316
02:00+18ne22905 0.5 101313
05:00+17e22935 0.3 101124
08:00+21e12795 0.3 1011227
11:00+27e1158100 0.4 1010898
14:00+26sw2362100 1.8 1009991
17:00+19wnw3796100 4.3 1010269
20:00+18ne119577 4.8 100924